Regional Weather Roundup
Issued by NWS

Home | Current Version | Previous Version | Text Only | Print | Product List | Glossary Off
Versions: 1 2 3 4 5 6 7 8 9 10 11 12 13 14 15 16 17 18 19 20 21 22 23 24 25 26 27 28 29 30 31 32 33 34 35 36 37 38 39 40 41 42 43 44 45 46 47 48 49 50

000
ASUS43 KIND 292009
RWRIN

WEATHER ROUNDUP FOR INDIANA
NATIONAL WEATHER SERVICE INDIANAPOLIS IN
400 PM EDT WED OCT 29 2014

NOTE: "FAIR" INDICATES FEW OR NO CLOUDS BELOW 12,000 FEET WITH NO
SIGNIFICANT WEATHER AND/OR OBSTRUCTIONS TO VISIBILITY.

* - STATION DOES NOT REPORT WEATHER SUCH AS PRECIPITATION OR FOG.

+ - STATION NOT QUALITY CONTROLLED BY THE NATIONAL WEATHER SERVICE.
    USE DATA WITH CAUTION...ESPECIALLY DEWPOINT AND RELATIVE
    HUMIDITY OBSERVATIONS.

INZ001>003-010>013-019-020-292100-
NORTHWEST INDIANA

CITY           SKY/WX    TMP DP  RH WIND       PRES   REMARKS
GARY /AIRPORT/ CLOUDY    48  32  53 W9G21     30.10R
KNOX *+        CLOUDY    46  32  58 W10       30.08S
LA PORTE +     CLOUDY    47  35  61 NW6       30.08S
MICHIGAN CITY+ CLOUDY    45  32  61 NW8       30.08S
MONTICELLO +   CLOUDY    46  35  63 NW8       30.09R
RENSSELAER +   CLOUDY    45  36  70 W9        30.11R
VALPARAISO     CLOUDY    46  32  58 W7        30.09R

$$

LMZ046-743>745-292100-
SOUTHERN LAKE MICHIGAN

STATION/POSITION TIME  TEMP WIND        PRES
                       AIR  DIR/SP/G
                 (UTC) (F)  (DEG/KT/KT) (MB)
MICHIGAN CITY    2000   47  270/ 14/ 17   N/A

$$

INZ004-005-014>016-021>024-292100-
NORTH CENTRAL INDIANA

CITY           SKY/WX    TMP DP  RH WIND       PRES   REMARKS
ELKHART        LGT RAIN  45  36  70 NW9       30.06R
GOSHEN         CLOUDY    45  35  68 W16       30.06R
LOGANSPORT +   CLOUDY    46  32  57 W8        30.10R
PERU/GRISSOM   CLOUDY    47  36  67 W13       30.08R
ROCHESTER +    CLOUDY    46  34  61 NW12      30.09R
SOUTH BEND     CLOUDY    47  34  60 NW12      30.07R
WARSAW +       CLOUDY    45  34  65 W13       30.07R

$$

INZ006>009-017-018-025>027-292100-
NORTHEAST INDIANA

CITY           SKY/WX    TMP DP  RH WIND       PRES   REMARKS
ANGOLA *+      CLOUDY    45  37  76 W10       30.04R
AUBURN +       CLOUDY    46  34  61 W12G17    30.05S
FORT WAYNE     CLOUDY    46  33  60 W13       30.07R
HUNTINGTON +   CLOUDY   N/A N/A N/A W6        30.07S

$$

INZ028-029-035-036-043>045-051>053-292100-
WEST CENTRAL INDIANA

CITY           SKY/WX    TMP DP  RH WIND       PRES   REMARKS
CRAWFORDSVL +  CLOUDY    46  32  57 W14       30.11
GREENCASTLE +  CLOUDY    50  32  50 NW10G16   30.10S
LAFAYETTE      CLOUDY    47  33  58 W12       30.11R
TERRE HAUTE    MOSUNNY   52  35  52 NW9       30.11S

$$

INZ030>032-037>040-046>048-054>057-064-065-292100-
CENTRAL INDIANA

CITY           SKY/WX    TMP DP  RH WIND       PRES   REMARKS
ANDERSON       CLOUDY    48  32  53 W17G23    30.09S
CP ATTERBURY + MOSUNNY   55  34  44 NW7G16    30.08S
COLUMBUS       SUNNY     54  36  50 NW9       30.07S
FRANKFORT +    CLOUDY    47  35  61 W13       30.11R
INDIANAPOLIS   PTSUNNY   51  34  52 NW18      30.09R
-EAGLE CREEK   CLOUDY    50  35  56 W14       30.08S
KOKOMO *+      CLOUDY    46  32  57 W15       30.09S
MARION +       CLOUDY    46  33  60 W14       30.09R
MT COMFORT *+  CLOUDY    50  27  40 NW20G28   30.09R
SHELBYVILLE    PTSUNNY   54  35  48 NW14      30.07S
ZIONSVILLE +   CLOUDY    49  32  52 NW13      30.09S

$$

INZ033-034-041-042-049-050-058-059-292100-
EAST CENTRAL INDIANA

CITY           SKY/WX    TMP DP  RH WIND       PRES   REMARKS
MUNCIE         CLOUDY    47  35  63 NW12      30.08R

$$

INZ060-061-067>069-081>083-085>088-292100-
SOUTHWEST INDIANA

CITY           SKY/WX    TMP DP  RH WIND       PRES   REMARKS
EVANSVILLE     SUNNY     60  35  39 NW13G21   30.12S
HUNTINGBURG *+ SUNNY     59  37  44 N9        30.11S
WASHINGTON +   SUNNY     55  38  52 NW14G20   30.11S

$$

INZ062-063-066-070>080-084-089>092-292100-
SOUTH CENTRAL AND SOUTHEAST INDIANA

CITY           SKY/WX    TMP DP  RH WIND       PRES   REMARKS
BLOOMINGTON    MOSUNNY   54  35  48 W9G21     30.09S
SEYMOUR +      SUNNY     61  37  41 W9G16     30.07

$$




USA.gov is the U.S. government's official web portal to all federal, state and local government web resources and services.